Date String (YYYY-MM-DD hh:mm:ss) UTC,Instrument flags,Ambient pressure (hPa),Sample flow (lpm),Bypass flow (lpm),Sample temperature (°C),Ambient temperature (°C),ASC tube jacket temperature (°C),LED temperature (°C),Box temperature (°C),Sample RH (%),Span deviation,Mass concentration (μg/m³),Mass concentration (μg/m³),Mass concentration (μg/m³)
DateTimeUTC,F1_M11,P_M11,Q1_M11,Q2_M11,T1_M11,T2_M11,T3_M11,T4_M11,T5_M11,U1_M11,ZSPAN_M11,X0_M11,X2_M11,X1_M11
2023-01-14 14:00:00,,0820.3,5.00,0.00,22.7,21.1,00.0,31.6,24.5,12.9,0000.0,0007.07,0002.88,0002.46
2023-01-14 14:01:00,,0820.3,5.01,0.00,22.7,21.2,00.0,31.6,24.4,12.6,0000.0,0006.87,0002.73,0002.36
2023-01-14 14:02:00,,0820.2,5.00,0.00,22.7,21.3,00.0,31.6,24.4,12.8,0000.0,0006.76,0002.63,0002.26
2023-01-14 14:03:00,,0820.0,5.00,0.00,22.7,21.3,00.0,31.6,24.4,12.6,0000.0,0005.59,0002.52,0002.14
2023-01-14 14:04:00,,0820.2,5.00,0.00,22.7,21.3,00.0,31.6,24.5,12.7,0000.0,0004.76,0002.40,0002.04
2023-01-14 14:05:00,,0820.2,5.00,0.00,22.7,21.3,00.0,31.6,24.5,12.7,0000.0,0004.70,0002.37,0002.04
2023-01-14 14:06:00,,0820.2,4.99,0.00,22.7,21.3,00.0,31.6,24.4,12.5,0000.0,0004.22,0002.35,0002.04
2023-01-14 14:07:00,,0820.1,5.00,0.00,22.7,21.2,00.0,31.6,24.4,12.4,0000.0,0003.75,0002.10,0001.81
2023-01-14 14:08:00,,0820.2,5.00,0.00,22.7,21.3,00.0,31.6,24.5,12.5,0000.0,0003.59,0001.98,0001.70
2023-01-14 14:09:00,,0820.2,5.01,0.00,22.7,21.3,00.0,31.6,24.4,12.7,0000.0,0002.40,0001.79,0001.56
2023-01-14 14:10:00,,0820.2,5.02,0.00,22.7,21.3,00.0,31.5,24.4,12.8,0000.0,0002.21,0001.69,0001.49
2023-01-14 14:11:00,,0820.1,5.01,0.00,22.7,21.4,00.0,31.5,24.5,12.7,0000.0,0002.01,0001.59,0001.42
2023-01-14 14:12:00,,0820.2,5.00,0.00,22.7,21.4,00.0,31.6,24.5,12.6,0000.0,0002.01,0001.56,0001.41
2023-01-14 14:13:00,,0820.2,4.99,0.00,22.7,21.4,00.0,31.5,24.5,12.7,0000.0,0003.12,0001.51,0001.40
2023-01-14 14:14:00,,0819.9,5.00,0.00,22.7,21.4,00.0,31.5,24.5,12.8,0000.0,0003.04,0001.48,0001.39
2023-01-14 14:15:00,,0819.9,5.00,0.00,22.7,21.4,00.0,31.5,24.4,12.7,0000.0,0003.02,0001.46,0001.39
2023-01-14 14:16:00,,0820.0,5.00,0.00,22.7,21.4,00.0,31.6,24.4,12.7,0000.0,0003.01,0001.45,0001.39
2023-01-14 14:17:00,,0819.9,5.00,0.00,22.7,21.4,00.0,31.6,24.4,13.1,0000.0,0003.05,0001.48,0001.42
2023-01-14 14:18:00,,0819.9,4.99,0.00,22.7,21.3,00.0,31.5,24.4,13.3,0000.0,0003.15,0001.55,0001.49
2023-01-14 14:19:00,,0820.0,5.00,0.00,22.7,21.3,00.0,31.5,24.4,13.6,0000.0,0003.25,0001.63,0001.58
2023-01-14 14:20:00,,0819.9,5.00,0.00,22.7,21.3,00.0,31.5,24.4,13.1,0000.0,0003.33,0001.68,0001.63
2023-01-14 14:21:00,,0819.9,5.01,0.00,22.7,21.3,00.0,31.5,24.4,12.7,0000.0,0003.36,0001.70,0001.64
2023-01-14 14:22:00,,0819.8,4.99,0.00,22.7,21.3,00.0,31.5,24.4,12.7,0000.0,0003.36,0001.71,0001.66
2023-01-14 14:23:00,,0819.9,4.99,0.00,22.6,21.3,00.0,31.5,24.4,12.7,0000.0,0003.24,0001.71,0001.67
2023-01-14 14:24:00,,0819.9,5.00,0.00,22.6,21.3,00.0,31.5,24.4,12.7,0000.0,0002.07,0001.72,0001.68
2023-01-14 14:25:00,,0819.9,5.01,0.00,22.7,21.3,00.0,31.5,24.4,12.6,0000.0,0002.11,0001.74,0001.69
2023-01-14 14:26:00,,0819.9,5.00,0.00,22.7,21.3,00.0,31.5,24.4,12.6,0000.0,0002.11,0001.74,0001.69
2023-01-14 14:27:00,,0820.0,5.00,0.00,22.6,21.3,00.0,31.5,24.4,12.6,0000.0,0002.09,0001.73,0001.68
2023-01-14 14:28:00,,0819.9,5.00,0.00,22.6,21.3,00.0,31.5,24.4,12.9,0000.0,0002.12,0001.74,0001.68
2023-01-14 14:29:00,,0819.9,4.99,0.00,22.6,21.3,00.0,31.5,24.4,13.0,0000.0,0002.15,0001.76,0001.69
2023-01-14 14:30:00,,0819.9,5.00,0.00,22.6,21.2,00.0,31.5,24.4,12.9,0000.0,0002.14,0001.75,0001.69
2023-01-14 14:31:00,,0819.9,5.01,0.00,22.6,21.2,00.0,31.5,24.4,13.1,0000.0,0002.23,0001.78,0001.70
2023-01-14 14:32:00,,0819.9,5.00,0.00,22.6,21.3,00.0,31.5,24.3,12.9,0000.0,0002.60,0001.79,0001.69
2023-01-14 14:33:00,,0819.9,5.01,0.00,22.6,21.3,00.0,31.5,24.3,12.9,0000.0,0002.60,0001.77,0001.65
2023-01-14 14:34:00,,0819.9,5.00,0.00,22.6,21.3,00.0,31.5,24.3,12.9,0000.0,0002.71,0001.76,0001.62
2023-01-14 14:35:00,,0819.9,5.00,0.00,22.6,21.3,00.0,31.5,24.3,12.9,0000.0,0003.10,0001.76,0001.60
2023-01-14 14:36:00,,0819.9,4.99,0.00,22.6,21.3,00.0,31.5,24.3,12.7,0000.0,0003.09,0001.74,0001.57
2023-01-14 14:37:00,,0819.9,5.00,0.00,22.6,21.3,00.0,31.5,24.3,12.6,0000.0,0003.16,0001.73,0001.54
2023-01-14 14:38:00,,0819.9,5.00,0.00,22.6,21.3,00.0,31.5,24.3,12.9,0000.0,0003.40,0001.74,0001.53
2023-01-14 14:39:00,,0819.9,5.00,0.00,22.6,21.3,00.0,31.5,24.4,13.1,0000.0,0003.94,0001.73,0001.51
2023-01-14 14:40:00,,0819.9,5.00,0.00,22.6,21.4,00.0,31.5,24.5,13.0,0000.0,0003.85,0001.69,0001.48
2023-01-14 14:41:00,,0819.9,5.00,0.00,22.6,21.4,00.0,31.5,24.4,12.8,0000.0,0003.82,0001.65,0001.42
2023-01-14 14:42:00,,0820.0,5.00,0.00,22.6,21.4,00.0,31.5,24.5,12.8,0000.0,0003.59,0001.53,0001.32
2023-01-14 14:43:00,,0819.9,5.00,0.00,22.7,21.4,00.0,31.5,24.5,12.8,0000.0,0003.16,0001.45,0001.25
2023-01-14 14:44:00,,0819.9,5.00,0.00,22.7,21.4,00.0,31.5,24.5,12.8,0000.0,0003.12,0001.42,0001.22
2023-01-14 14:45:00,,0819.9,5.00,0.00,22.7,21.4,00.0,31.5,24.4,12.7,0000.0,0002.92,0001.36,0001.19
2023-01-14 14:46:00,,0819.9,5.00,0.00,22.7,21.4,00.0,31.5,24.5,12.6,0000.0,0002.41,0001.28,0001.14
2023-01-14 14:47:00,,0819.9,5.00,0.00,22.7,21.5,00.0,31.5,24.5,12.4,0000.0,0002.29,0001.20,0001.08
2023-01-14 14:48:00,,0820.0,5.00,0.00,22.7,21.4,00.0,31.5,24.5,12.4,0000.0,0002.11,0001.12,0001.02
2023-01-14 14:49:00,,0820.0,4.99,0.00,22.7,21.2,00.0,31.5,24.4,12.6,0000.0,0001.81,0001.05,0000.97
2023-01-14 14:50:00,,0820.0,5.01,0.00,22.6,21.1,00.0,31.5,24.4,12.8,0000.0,0001.13,0000.96,0000.90
2023-01-14 14:51:00,,0820.0,5.00,0.00,22.6,21.2,00.0,31.5,24.4,12.7,0000.0,0001.06,0000.90,0000.84
2023-01-14 14:52:00,,0820.1,5.00,0.00,22.6,21.2,00.0,31.5,24.3,12.7,0000.0,0001.03,0000.87,0000.82
2023-01-14 14:53:00,,0820.2,5.02,0.00,22.6,21.3,00.0,31.5,24.4,12.6,0000.0,0001.04,0000.87,0000.82
2023-01-14 14:54:00,,0820.2,5.00,0.00,22.6,21.3,00.0,31.5,24.4,12.6,0000.0,0001.04,0000.88,0000.84
2023-01-14 14:55:00,,0820.2,5.00,0.00,22.6,21.2,00.0,31.5,24.4,12.7,0000.0,0001.07,0000.90,0000.85
2023-01-14 14:56:00,,0820.2,5.00,0.00,22.6,21.0,00.0,31.5,24.3,12.8,0000.0,0001.15,0000.94,0000.87
2023-01-14 14:57:00,,0820.2,4.99,0.00,22.6,21.0,00.0,31.5,24.3,12.7,0000.0,0001.20,0000.98,0000.90
2023-01-14 14:58:00,,0820.0,4.99,0.00,22.6,21.1,00.0,31.5,24.3,12.6,0000.0,0001.28,0001.03,0000.95
2023-01-14 14:59:00,,0819.9,4.99,0.00,22.6,21.1,00.0,31.5,24.3,12.3,0000.0,0001.33,0001.06,0000.97
